When you browse on this site, cookies collect data to enhance your experience and personalize the content and advertising you see.
Visit our Privacy Policy to learn more. By continuing to use the site, you agree to this use of cookies and data.
  • In Austria
  • List of Countries
  • For 7 days
  • Water Temperature
  • Weather Map
  • News
  • Weather Widgets
  • user-avatar
    Login

    Hourly Weather Bamenda

    Today, 9 December, Monday

    Time Temperature Precipitation Wind Pressure Humidity
    00:00 +17°C° 0 mm 0 mps 640 mmHg 53%
    01:00 +16°C° 0 mm 0 mps 640 mmHg 52%
    02:00 +18°C° 0 mm 1 mps 640 mmHg 51%
    03:00 +18°C° 0 mm 1 mps 640 mmHg 50%
    04:00 +16°C° 0 mm 1 mps 640 mmHg 49%
    05:00 +18°C° 0 mm 1 mps 640 mmHg 48%
    06:00 +18°C° 0 mm 1 mps 640 mmHg 47%
    07:00 +18°C° 0 mm 1 mps 641 mmHg 45%
    08:00 +21°C° 0 mm 1 mps 642 mmHg 39%
    09:00 +24°C° 0 mm 1 mps 643 mmHg 33%
    10:00 +27°C° 0 mm 1 mps 644 mmHg 27%
    11:00 +28°C° 0 mm 1 mps 643 mmHg 26%
    12:00 +29°C° 0 mm 1 mps 643 mmHg 25%
    13:00 +30°C° 0 mm 2 mps 642 mmHg 23%
    14:00 +29°C° 0 mm 2 mps 642 mmHg 24%
    15:00 +29°C° 0 mm 2 mps 641 mmHg 25%
    16:00 +29°C° 0 mm 2 mps 641 mmHg 26%
    17:00 +26°C° 0 mm 2 mps 640 mmHg 33%
    18:00 +23°C° 0 mm 1 mps 640 mmHg 39%
    19:00 +21°C° 0 mm 1 mps 639 mmHg 46%
    20:00 +20°C° 0 mm 1 mps 640 mmHg 48%
    21:00 +20°C° 0 mm 1 mps 640 mmHg 50%
    22:00 +19°C° 0 mm 1 mps 640 mmHg 51%
    23:00 +19°C° 0 mm 1 mps 640 mmHg 52%

    Tomorrow, 10 December, Tuesday

    Time Temperature Precipitation Wind Pressure Humidity
    00:00 +19°C° 0 mm 1 mps 640 mmHg 53%
    01:00 +18°C° 0 mm 1 mps 640 mmHg 53%
    02:00 +18°C° 0 mm 1 mps 640 mmHg 53%
    03:00 +18°C° 0 mm 1 mps 639 mmHg 52%
    04:00 +16°C° 0 mm 1 mps 639 mmHg 51%
    05:00 +18°C° 0 mm 1 mps 640 mmHg 49%
    06:00 +16°C° 0 mm 0 mps 640 mmHg 48%
    07:00 +16°C° 0 mm 0 mps 640 mmHg 46%
    08:00 +21°C° 0 mm 1 mps 641 mmHg 40%
    09:00 +23°C° 0 mm 1 mps 642 mmHg 33%
    10:00 +26°C° 0 mm 1 mps 643 mmHg 27%
    11:00 +27°C° 0 mm 1 mps 643 mmHg 26%
    12:00 +28°C° 0 mm 2 mps 643 mmHg 25%
    13:00 +29°C° 0 mm 2 mps 642 mmHg 24%
    14:00 +29°C° 0 mm 2 mps 642 mmHg 26%
    15:00 +28°C° 0 mm 2 mps 641 mmHg 28%
    16:00 +28°C° 0 mm 2 mps 640 mmHg 29%
    17:00 +25°C° 0 mm 1 mps 640 mmHg 38%
    18:00 +23°C° 0 mm 1 mps 639 mmHg 47%
    19:00 +20°C° 0 mm 1 mps 639 mmHg 55%
    20:00 +20°C° 0 mm 1 mps 639 mmHg 57%
    21:00 +19°C° 0 mm 1 mps 640 mmHg 60%
    22:00 +19°C° 0 mm 1 mps 640 mmHg 62%
    23:00 +18°C° 0 mm 1 mps 640 mmHg 64%

    Day after tomorrow, 11 December, Wednesday

    Time Temperature Precipitation Wind Pressure Humidity
    00:00 +18°C° 0 mm 1 mps 640 mmHg 65%
    01:00 +18°C° 0 mm 1 mps 639 mmHg 67%
    02:00 +18°C° 0 mm 1 mps 639 mmHg 64%
    03:00 +16°C° 0 mm 1 mps 639 mmHg 61%
    04:00 +16°C° 0 mm 1 mps 639 mmHg 58%
    05:00 +18°C° 0 mm 1 mps 639 mmHg 54%
    06:00 +18°C° 0 mm 1 mps 640 mmHg 51%
    07:00 +18°C° 0 mm 1 mps 640 mmHg 47%
    08:00 +21°C° 0 mm 1 mps 641 mmHg 41%
    09:00 +23°C° 0 mm 1 mps 642 mmHg 34%
    10:00 +26°C° 0 mm 1 mps 643 mmHg 27%
    11:00 +27°C° 0 mm 2 mps 643 mmHg 26%
    12:00 +28°C° 0 mm 2 mps 643 mmHg 25%
    13:00 +29°C° 0 mm 2 mps 643 mmHg 23%
    14:00 +29°C° 0 mm 2 mps 642 mmHg 25%
    15:00 +28°C° 0 mm 2 mps 641 mmHg 27%
    16:00 +28°C° 0 mm 2 mps 641 mmHg 28%
    17:00 +25°C° 0 mm 1 mps 640 mmHg 36%
    18:00 +23°C° 0 mm 1 mps 640 mmHg 44%
    19:00 +20°C° 0 mm 1 mps 639 mmHg 53%
    20:00 +20°C° 0 mm 1 mps 640 mmHg 54%
    21:00 +19°C° 0 mm 1 mps 640 mmHg 56%
    22:00 +17°C° 0 mm 0 mps 640 mmHg 58%
    23:00 +19°C° 0 mm 1 mps 640 mmHg 57%

    12 December, Thursday

    Time Temperature Precipitation Wind Pressure Humidity
    00:00 +18°C° 0 mm 1 mps 640 mmHg 56%
    01:00 +18°C° 0 mm 1 mps 640 mmHg 54%
    02:00 +18°C° 0 mm 1 mps 640 mmHg 52%
    03:00 +18°C° 0 mm 1 mps 639 mmHg 50%
    04:00 +18°C° 0 mm 1 mps 639 mmHg 48%
    05:00 +18°C° 0 mm 1 mps 640 mmHg 46%
    06:00 +18°C° 0 mm 1 mps 640 mmHg 45%
    07:00 +18°C° 0 mm 1 mps 641 mmHg 43%
    08:00 +21°C° 0 mm 1 mps 642 mmHg 37%
    09:00 +24°C° 0 mm 1 mps 643 mmHg 30%
    10:00 +27°C° 0 mm 1 mps 644 mmHg 24%
    11:00 +28°C° 0 mm 1 mps 643 mmHg 24%
    12:00 +29°C° 0 mm 2 mps 643 mmHg 23%
    13:00 +29°C° 0 mm 2 mps 642 mmHg 23%
    14:00 +29°C° 0 mm 2 mps 642 mmHg 24%
    15:00 +28°C° 0 mm 2 mps 641 mmHg 25%
    16:00 +28°C° 0 mm 2 mps 640 mmHg 26%
    17:00 +26°C° 0 mm 1 mps 640 mmHg 33%
    18:00 +23°C° 0 mm 1 mps 640 mmHg 39%
    19:00 +21°C° 0 mm 1 mps 639 mmHg 46%
    20:00 +20°C° 0 mm 1 mps 640 mmHg 47%
    21:00 +20°C° 0 mm 1 mps 640 mmHg 48%
    22:00 +19°C° 0 mm 1 mps 640 mmHg 49%
    23:00 +19°C° 0 mm 1 mps 640 mmHg 47%

    13 December, Friday

    Time Temperature Precipitation Wind Pressure Humidity
    00:00 +19°C° 0 mm 1 mps 640 mmHg 44%
    01:00 +18°C° 0 mm 1 mps 640 mmHg 42%
    02:00 +18°C° 0 mm 1 mps 640 mmHg 40%
    03:00 +18°C° 0 mm 1 mps 640 mmHg 37%
    04:00 +18°C° 0 mm 1 mps 639 mmHg 35%
    05:00 +18°C° 0 mm 1 mps 640 mmHg 36%
    06:00 +18°C° 0 mm 1 mps 640 mmHg 36%
    07:00 +18°C° 0 mm 1 mps 641 mmHg 37%
    08:00 +21°C° 0 mm 1 mps 642 mmHg 32%
    09:00 +24°C° 0 mm 1 mps 643 mmHg 27%
    10:00 +27°C° 0 mm 1 mps 644 mmHg 22%
    11:00 +28°C° 0 mm 1 mps 644 mmHg 22%
    12:00 +29°C° 0 mm 1 mps 643 mmHg 21%
    13:00 +30°C° 0 mm 1 mps 643 mmHg 21%
    14:00 +30°C° 0 mm 1 mps 642 mmHg 22%
    15:00 +29°C° 0 mm 2 mps 641 mmHg 23%
    16:00 +29°C° 0 mm 2 mps 641 mmHg 25%
    17:00 +26°C° 0 mm 1 mps 640 mmHg 31%
    18:00 +23°C° 0 mm 1 mps 640 mmHg 38%
    19:00 +21°C° 0 mm 1 mps 640 mmHg 45%
    20:00 +20°C° 0 mm 1 mps 640 mmHg 46%
    21:00 +20°C° 0 mm 1 mps 640 mmHg 47%
    22:00 +19°C° 0 mm 1 mps 641 mmHg 49%
    23:00 +19°C° 0 mm 1 mps 641 mmHg 49%

    14 December, Saturday

    Time Temperature Precipitation Wind Pressure Humidity
    00:00 +19°C° 0 mm 1 mps 640 mmHg 48%
    01:00 +18°C° 0 mm 1 mps 640 mmHg 48%
    02:00 +18°C° 0 mm 1 mps 640 mmHg 46%
    03:00 +18°C° 0 mm 1 mps 640 mmHg 43%
    04:00 +18°C° 0 mm 1 mps 640 mmHg 40%
    05:00 +18°C° 0 mm 1 mps 640 mmHg 39%
    06:00 +18°C° 0 mm 1 mps 640 mmHg 38%
    07:00 +16°C° 0 mm 0 mps 641 mmHg 37%
    08:00 +21°C° 0 mm 1 mps 642 mmHg 32%
    09:00 +24°C° 0 mm 1 mps 643 mmHg 28%
    10:00 +27°C° 0 mm 1 mps 644 mmHg 23%
    11:00 +28°C° 0 mm 1 mps 644 mmHg 22%
    12:00 +29°C° 0 mm 1 mps 643 mmHg 22%
    13:00 +31°C° 0 mm 1 mps 643 mmHg 21%
    14:00 +30°C° 0 mm 1 mps 642 mmHg 22%
    15:00 +30°C° 0 mm 1 mps 641 mmHg 23%
    16:00 +29°C° 0 mm 2 mps 641 mmHg 24%
    17:00 +26°C° 0 mm 1 mps 640 mmHg 31%
    18:00 +24°C° 0 mm 1 mps 640 mmHg 37%
    19:00 +21°C° 0 mm 1 mps 639 mmHg 44%
    20:00 +21°C° 0 mm 1 mps 640 mmHg 45%
    21:00 +20°C° 0 mm 1 mps 640 mmHg 46%
    22:00 +20°C° 0 mm 1 mps 641 mmHg 48%
    23:00 +19°C° 0 mm 1 mps 641 mmHg 48%
    Show more